Location: Brede
(50.9167°N, 0.6000°E)
Time: 18:43:45
(UTC+00:00)

Meteor 1-28 Rocket - Pass Details

Date: 08 August 2020
Orbit: 502 x 524 km, 97.3° (Epoch: 23 September)

Event Time Altitude Azimuth Distance (km) Brightness Sun altitude
Exits shadow 02:20:40 - 149° (SSE) 1,824 5.7 -16.6°
Reaches altitude 10° 02:20:51 10° 148° (SSE) 1,754 5.7 -16.6°
Maximum altitude 02:24:32 52° 72° (ENE) 659 4.0 -16.3°
Drops below altitude 10° 02:28:15 10° 356° (N) 1,776 6.6 -15.9°
Sets 02:30:24 0° 351° (N) 2,671 7.5 -15.7°
